OBJECT Y, 63232

Orbit data source: Space-Track

You're viewing an uncataloged RSO

Recently launched and/or uncataloged RSOs may have evolving metadata. Metadata may include the following, but is not limited to: Owner, Manufacturer, Bus, Motor, and Mission.

OBJECT Y, 63232 is a satellite in SSO that was launched on Sat, 15 Mar 2025 UTC via an FALCON 9 launch vehicle from the Air Force Western Test Range (AFWTR). Unknown objects in Earth's orbit typically refer to objects detected orbiting the Earth but have not yet been identified or cataloged. These objects could be anything from previously untracked satellites, spent rocket stages, debris from satellite collisions, or even natural meteoroids temporarily captured by Earth's gravity.

Loading next visibility...
Identifier
63232, 2025-052Y
Orbit
SSO
Country
Flag of TBDTBD
Related business
Manufacturer
Astro Digital
Mission
Operational Commercial Technology
Bus & Motor
CORVUS-MICRO, Unknown motor
Mass
32 kg wet, 32 kg dry
Launch date (UTC)
2025-03-15 (1 year ago)
Launch vehicle
FALCON 9
Launch site
Air Force Western Test Range (AFWTR)
Object type
Unknown
Shape & HBR
Box, 0.5 m
Radar Cross Section
0.400 m², Medium (>0.1 m² and < 1m²)

Expand to show TLE details & history
Last TLE update: 9 hours ago

TLE from 9 hours ago
0 OBJECT Y
1 63232U 25052Y   26254.64942558  .00004823  00000-0  19702-3 0  9991
2 63232  97.3814 146.4519 0005123 186.1541 173.9634 15.24841353 83041
Epoch: 2026-09-11T15:35Z
TLE epoch observation values (Epoch: 2026-09-11T15:35:10.370Z)
Latitude
-0.00008°
Longitude
-78.01105°
Altitude
497.86 km
Speed
7.614 km/s
True Right ascension
09h 45m 48s
True Declination
0° 00' 00"
Sunlit
Object was in daylight at epoch
Visualization orbit readout
Latitude
Unknown
Longitude
Unknown
Altitude
Unknown
Speed
Unknown
Apparent Right ascension
Unknown
Apparent Declination
Unknown
Sunlit
N/A
Visualization observer readout
Local Sidereal Time
16:57:26
Azimuth
Unknown
Elevation
Unknown
Doppler factor
Unknown
Orbital elements
Apogee altitude
491.738 km
Perigee altitude
484.703 km
Semi-major axis
6,866.357 km
Eccentricity
0.00051
Inclination
97.3814°
RAAN
146.4519°
Arg. of periapsis
186.1541°
True anomaly
173.96957°
Mean anomaly
173.9634°
Eccentric anomaly
173.96649°
Mean motion
3.81464 °/min
Orbital period
94.37 mins
BSTAR
0.00019702
Loading maneuver chart data...
Computing Atmospheric mass density...
Loading historical data...
Loading historical data...
Loading historical data...
Loading historical data...
Loading historical data...
Loading historical data...
Loading historical data...

Documentation

Showing up to 5 results
|